TimeCST,TemperatureF,Dew PointF,Humidity,Sea Level PressureIn,VisibilityMPH,Wind Direction,Wind SpeedMPH,Gust SpeedMPH,PrecipitationIn,Events,Conditions,WindDirDegrees,DateUTC
12:30 AM,30.2,26.6,86,30.43,10.0,NNE,9.2,-,0.00,,Overcast,20,2013-12-07 06:30:00
12:37 AM,30.2,26.6,86,30.43,10.0,NNE,9.2,16.1,0.00,,Overcast,20,2013-12-07 06:37:00
12:53 AM,32.0,28.0,85,30.43,10.0,NNE,8.1,-,0.00,,Overcast,20,2013-12-07 06:53:00
1:53 AM,30.9,26.1,82,30.44,10.0,NNE,11.5,18.4,N/A,,Overcast,20,2013-12-07 07:53:00
2:53 AM,30.9,26.1,82,30.44,10.0,NNE,10.4,-,N/A,,Overcast,20,2013-12-07 08:53:00
3:53 AM,30.0,26.1,85,30.46,10.0,North,10.4,17.3,N/A,,Overcast,10,2013-12-07 09:53:00
4:53 AM,30.0,26.1,85,30.45,10.0,NNE,6.9,-,N/A,,Overcast,20,2013-12-07 10:53:00
5:53 AM,30.0,25.0,82,30.47,10.0,NNE,9.2,-,N/A,,Overcast,30,2013-12-07 11:53:00
6:53 AM,30.0,24.1,79,30.48,10.0,NNE,9.2,18.4,N/A,,Overcast,30,2013-12-07 12:53:00
7:53 AM,30.0,25.0,82,30.49,10.0,North,9.2,-,N/A,,Overcast,10,2013-12-07 13:53:00
8:53 AM,28.9,25.0,85,30.50,10.0,North,11.5,17.3,N/A,,Overcast,10,2013-12-07 14:53:00
9:53 AM,30.0,25.0,82,30.50,10.0,NNE,8.1,-,N/A,,Overcast,20,2013-12-07 15:53:00
10:53 AM,30.0,25.0,82,30.48,10.0,NNE,12.7,17.3,N/A,,Overcast,30,2013-12-07 16:53:00
11:43 AM,30.2,24.8,80,30.46,10.0,NNE,8.1,16.1,N/A,,Overcast,30,2013-12-07 17:43:00
11:53 AM,32.0,25.0,75,30.45,10.0,NNE,9.2,-,N/A,,Overcast,30,2013-12-07 17:53:00
12:37 PM,32.0,24.8,75,30.42,10.0,Variable,6.9,-,N/A,,Overcast,0,2013-12-07 18:37:00
12:53 PM,33.1,24.1,70,30.41,10.0,NNE,10.4,-,N/A,,Overcast,20,2013-12-07 18:53:00
1:53 PM,32.0,24.1,73,30.39,10.0,NNE,11.5,-,N/A,,Overcast,20,2013-12-07 19:53:00
2:53 PM,32.0,23.0,69,30.36,10.0,NE,9.2,-,N/A,,Overcast,50,2013-12-07 20:53:00
3:53 PM,32.0,23.0,69,30.35,10.0,NE,8.1,-,N/A,,Overcast,40,2013-12-07 21:53:00
4:53 PM,32.0,24.1,73,30.34,10.0,NE,6.9,-,N/A,,Overcast,40,2013-12-07 22:53:00
5:53 PM,32.0,24.1,73,30.33,10.0,NE,4.6,-,0.00,,Overcast,40,2013-12-07 23:53:00
6:13 PM,32.0,24.8,75,30.33,10.0,ENE,5.8,-,N/A,,Overcast,70,2013-12-08 00:13:00
6:31 PM,32.0,23.0,69,30.34,10.0,ENE,6.9,-,N/A,,Overcast,60,2013-12-08 00:31:00
6:53 PM,32.0,24.1,73,30.35,10.0,ENE,5.8,-,N/A,,Overcast,70,2013-12-08 00:53:00
7:08 PM,32.0,24.8,75,30.34,10.0,ENE,4.6,-,0.00,,Overcast,70,2013-12-08 01:08:00
7:53 PM,30.9,24.1,76,30.35,10.0,ENE,8.1,-,0.00,,Overcast,60,2013-12-08 01:53:00
8:53 PM,30.9,24.1,76,30.35,10.0,East,6.9,-,0.00,,Overcast,80,2013-12-08 02:53:00
9:53 PM,30.0,24.1,79,30.36,10.0,ENE,8.1,-,0.00,,Overcast,70,2013-12-08 03:53:00
10:53 PM,30.0,25.0,82,30.36,10.0,ENE,5.8,-,N/A,,Overcast,60,2013-12-08 04:53:00
11:06 PM,30.2,24.8,80,30.35,10.0,ENE,6.9,-,N/A,,Overcast,60,2013-12-08 05:06:00
11:53 PM,28.9,25.0,85,30.31,10.0,East,8.1,-,N/A,,Overcast,80,2013-12-08 05:53:00